Time,TemperatureF,DewpointF,PressureIn,WindDirection,WindDirectionDegrees,WindSpeedMPH,WindSpeedGustMPH,Humidity,HourlyPrecipIn,Conditions,Clouds,dailyrainin,SolarRadiationWatts/m^2,SoftwareType,DateUTC
2013-04-09 00:02:00,26.0,15.0,-100.00,NW,316,2.0,20.0,64,0.00,,,0.00,0.800000,,2013-04-09 08:02:00,
2013-04-09 00:12:00,26.0,15.0,-100.00,NW,316,2.0,20.0,64,0.00,,,0.00,0.800000,,2013-04-09 08:12:00,
2013-04-09 00:22:00,26.0,15.0,-100.00,NW,316,2.0,20.0,64,0.00,,,0.00,0.800000,,2013-04-09 08:22:00,
2013-04-09 00:52:00,25.0,12.0,-100.00,WNW,283,4.0,8.0,57,0.00,,,0.00,0.800000,,2013-04-09 08:52:00,
2013-04-09 01:02:00,25.0,12.0,-100.00,WNW,283,4.0,8.0,57,0.00,,,0.00,0.800000,,2013-04-09 09:02:00,
2013-04-09 01:12:00,25.0,12.0,-100.00,WNW,283,4.0,8.0,57,0.00,,,0.00,0.800000,,2013-04-09 09:12:00,
2013-04-09 01:22:00,25.0,12.0,-100.00,WNW,283,4.0,8.0,57,0.00,,,0.00,0.800000,,2013-04-09 09:22:00,
2013-04-09 01:52:00,24.0,9.0,-100.00,West,259,4.0,6.0,51,0.00,,,0.00,0.800000,,2013-04-09 09:52:00,
2013-04-09 02:03:00,24.0,9.0,-100.00,West,259,4.0,6.0,51,0.00,,,0.00,0.800000,,2013-04-09 10:03:00,
2013-04-09 02:12:00,24.0,9.0,-100.00,West,259,4.0,6.0,51,0.00,,,0.00,0.800000,,2013-04-09 10:12:00,
2013-04-09 02:23:00,24.0,9.0,-100.00,West,259,4.0,6.0,51,0.00,,,0.00,0.800000,,2013-04-09 10:23:00,
2013-04-09 02:53:00,23.0,5.0,-100.00,West,261,8.0,12.0,46,0.00,,,0.00,0.800000,,2013-04-09 10:53:00,
2013-04-09 03:02:00,23.0,5.0,-100.00,West,261,8.0,12.0,46,0.00,,,0.00,0.800000,,2013-04-09 11:02:00,
2013-04-09 03:12:00,23.0,5.0,-100.00,West,261,8.0,12.0,46,0.00,,,0.00,0.800000,,2013-04-09 11:12:00,
2013-04-09 03:22:00,23.0,5.0,-100.00,West,261,8.0,12.0,46,0.00,,,0.00,0.800000,,2013-04-09 11:22:00,
2013-04-09 03:52:00,22.0,5.0,-100.00,West,267,9.0,16.0,48,0.00,,,0.00,0.800000,,2013-04-09 11:52:00,
2013-04-09 04:02:00,22.0,5.0,-100.00,West,267,9.0,16.0,48,0.00,,,0.00,0.800000,,2013-04-09 12:02:00,
2013-04-09 04:12:00,22.0,5.0,-100.00,West,267,9.0,16.0,48,0.00,,,0.00,0.800000,,2013-04-09 12:12:00,
2013-04-09 04:22:00,22.0,5.0,-100.00,West,267,9.0,16.0,48,0.00,,,0.00,0.800000,,2013-04-09 12:22:00,
2013-04-09 04:53:00,22.0,6.0,-100.00,SW,234,2.0,19.0,51,0.00,,,0.00,0.800000,,2013-04-09 12:53:00,
2013-04-09 05:02:00,22.0,6.0,-100.00,SW,234,2.0,19.0,51,0.00,,,0.00,0.800000,,2013-04-09 13:02:00,
2013-04-09 05:12:00,22.0,6.0,-100.00,SW,234,2.0,19.0,51,0.00,,,0.00,0.800000,,2013-04-09 13:12:00,
2013-04-09 05:22:00,22.0,6.0,-100.00,SW,234,2.0,19.0,51,0.00,,,0.00,0.800000,,2013-04-09 13:22:00,
2013-04-09 06:02:00,21.0,0.0,-100.00,West,275,3.0,18.0,38,0.00,,,0.00,0.800000,,2013-04-09 14:02:00,
2013-04-09 06:12:00,21.0,0.0,-100.00,West,275,3.0,18.0,38,0.00,,,0.00,0.800000,,2013-04-09 14:12:00,
2013-04-09 06:22:00,21.0,0.0,-100.00,West,275,3.0,18.0,38,0.00,,,0.00,0.800000,,2013-04-09 14:22:00,
2013-04-09 06:52:00,21.0,-1.0,-100.00,SE,124,5.0,13.0,37,0.00,,,0.00,0.800000,,2013-04-09 14:52:00,
2013-04-09 07:02:00,21.0,-1.0,-100.00,SE,124,5.0,13.0,37,0.00,,,0.00,0.800000,,2013-04-09 15:02:00,
2013-04-09 07:12:00,21.0,-1.0,-100.00,SE,124,5.0,13.0,37,0.00,,,0.00,0.800000,,2013-04-09 15:12:00,
2013-04-09 07:22:00,21.0,-1.0,-100.00,SE,124,5.0,13.0,37,0.00,,,0.00,0.800000,,2013-04-09 15:22:00,
2013-04-09 07:53:00,21.0,-3.0,-100.00,South,191,6.0,12.0,34,0.00,,,0.00,5.600000,,2013-04-09 15:53:00,
2013-04-09 08:03:00,21.0,-3.0,-100.00,South,191,6.0,12.0,34,0.00,,,0.00,5.600000,,2013-04-09 16:03:00,
2013-04-09 08:13:00,21.0,-3.0,-100.00,South,191,6.0,12.0,34,0.00,,,0.00,5.600000,,2013-04-09 16:13:00,
2013-04-09 08:23:00,21.0,-3.0,-100.00,South,191,6.0,12.0,34,0.00,,,0.00,5.600000,,2013-04-09 16:23:00,
2013-04-09 08:53:00,23.0,1.0,-100.00,South,190,6.0,8.0,38,0.00,,,0.00,107.300003,,2013-04-09 16:53:00,
2013-04-09 09:02:00,23.0,1.0,-100.00,South,190,6.0,8.0,38,0.00,,,0.00,107.300003,,2013-04-09 17:02:00,
2013-04-09 09:12:00,23.0,1.0,-100.00,South,190,6.0,8.0,38,0.00,,,0.00,107.300003,,2013-04-09 17:12:00,
2013-04-09 09:22:00,23.0,1.0,-100.00,South,190,6.0,8.0,38,0.00,,,0.00,107.300003,,2013-04-09 17:22:00,
2013-04-09 09:54:00,24.0,3.0,-100.00,SSE,168,8.0,12.0,39,0.00,,,0.00,274.399994,,2013-04-09 17:54:00,
2013-04-09 10:02:00,24.0,3.0,-100.00,SSE,168,8.0,12.0,39,0.00,,,0.00,274.399994,,2013-04-09 18:02:00,
2013-04-09 10:12:00,24.0,3.0,-100.00,SSE,168,8.0,12.0,39,0.00,,,0.00,274.399994,,2013-04-09 18:12:00,
2013-04-09 10:22:00,24.0,3.0,-100.00,SSE,168,8.0,12.0,39,0.00,,,0.00,274.399994,,2013-04-09 18:22:00,
2013-04-09 10:53:00,28.0,4.0,-100.00,WSW,253,2.0,11.0,36,0.00,,,0.00,421.799988,,2013-04-09 18:53:00,
2013-04-09 11:02:00,28.0,4.0,-100.00,WSW,253,2.0,11.0,36,0.00,,,0.00,421.799988,,2013-04-09 19:02:00,
2013-04-09 11:11:00,28.0,4.0,-100.00,WSW,253,2.0,11.0,36,0.00,,,0.00,421.799988,,2013-04-09 19:11:00,
2013-04-09 11:52:00,27.0,6.0,-100.00,SSE,157,6.0,11.0,40,0.00,,,0.00,549.000000,,2013-04-09 19:52:00,
2013-04-09 12:02:00,27.0,6.0,-100.00,SSE,157,6.0,11.0,40,0.00,,,0.00,549.000000,,2013-04-09 20:02:00,
2013-04-09 12:12:00,27.0,6.0,-100.00,SSE,157,6.0,11.0,40,0.00,,,0.00,549.000000,,2013-04-09 20:12:00,
2013-04-09 12:22:00,27.0,6.0,-100.00,SSE,157,6.0,11.0,40,0.00,,,0.00,549.000000,,2013-04-09 20:22:00,
2013-04-09 12:52:00,28.0,7.0,-100.00,SE,130,7.0,14.0,41,0.00,,,0.00,643.000000,,2013-04-09 20:52:00,
2013-04-09 13:02:00,28.0,7.0,-100.00,SE,130,7.0,14.0,41,0.00,,,0.00,643.000000,,2013-04-09 21:02:00,
2013-04-09 13:12:00,28.0,7.0,-100.00,SE,130,7.0,14.0,41,0.00,,,0.00,643.000000,,2013-04-09 21:12:00,
2013-04-09 13:22:00,28.0,7.0,-100.00,SE,130,7.0,14.0,41,0.00,,,0.00,643.000000,,2013-04-09 21:22:00,
2013-04-09 13:53:00,28.0,6.0,-100.00,SE,138,7.0,12.0,39,0.00,,,0.00,700.099976,,2013-04-09 21:53:00,
2013-04-09 14:03:00,28.0,6.0,-100.00,SE,138,7.0,12.0,39,0.00,,,0.00,700.099976,,2013-04-09 22:03:00,
2013-04-09 14:12:00,28.0,6.0,-100.00,SE,138,7.0,12.0,39,0.00,,,0.00,700.099976,,2013-04-09 22:12:00,
2013-04-09 14:22:00,28.0,6.0,-100.00,SE,138,7.0,12.0,39,0.00,,,0.00,700.099976,,2013-04-09 22:22:00,
2013-04-09 14:53:00,26.0,2.0,-100.00,West,262,12.0,13.0,35,0.00,,,0.00,713.400024,,2013-04-09 22:53:00,
2013-04-09 15:02:00,26.0,2.0,-100.00,West,262,12.0,13.0,35,0.00,,,0.00,713.400024,,2013-04-09 23:02:00,
2013-04-09 15:12:00,26.0,2.0,-100.00,West,262,12.0,13.0,35,0.00,,,0.00,713.400024,,2013-04-09 23:12:00,
2013-04-09 15:22:00,26.0,2.0,-100.00,West,262,12.0,13.0,35,0.00,,,0.00,713.400024,,2013-04-09 23:22:00,
2013-04-09 15:53:00,26.0,2.0,-100.00,WSW,253,14.0,19.0,35,0.00,,,0.00,683.400024,,2013-04-09 23:53:00,
2013-04-09 16:03:00,26.0,2.0,-100.00,WSW,253,14.0,19.0,35,0.00,,,0.00,683.400024,,2013-04-10 00:03:00,
2013-04-09 16:12:00,26.0,2.0,-100.00,WSW,253,14.0,19.0,35,0.00,,,0.00,683.400024,,2013-04-10 00:12:00,
2013-04-09 16:22:00,26.0,2.0,-100.00,WSW,253,14.0,19.0,35,0.00,,,0.00,683.400024,,2013-04-10 00:22:00,
2013-04-09 16:52:00,25.0,2.0,-100.00,WSW,253,16.0,23.0,37,0.00,,,0.00,613.099976,,2013-04-10 00:52:00,
2013-04-09 17:02:00,25.0,2.0,-100.00,WSW,253,16.0,23.0,37,0.00,,,0.00,613.099976,,2013-04-10 01:02:00,
2013-04-09 17:12:00,25.0,2.0,-100.00,WSW,253,16.0,23.0,37,0.00,,,0.00,613.099976,,2013-04-10 01:12:00,
2013-04-09 17:22:00,25.0,2.0,-100.00,WSW,253,16.0,23.0,37,0.00,,,0.00,613.099976,,2013-04-10 01:22:00,
2013-04-09 17:53:00,24.0,-1.0,-100.00,WSW,255,20.0,26.0,33,0.00,,,0.00,507.700012,,2013-04-10 01:53:00,
2013-04-09 18:02:00,24.0,-1.0,-100.00,WSW,255,20.0,26.0,33,0.00,,,0.00,507.700012,,2013-04-10 02:02:00,
2013-04-09 18:12:00,24.0,-1.0,-100.00,WSW,255,20.0,26.0,33,0.00,,,0.00,507.700012,,2013-04-10 02:12:00,
2013-04-09 18:21:00,24.0,-1.0,-100.00,WSW,255,20.0,26.0,33,0.00,,,0.00,507.700012,,2013-04-10 02:21:00,
2013-04-09 18:52:00,24.0,-1.0,-100.00,West,260,19.0,32.0,33,0.00,,,0.00,385.399994,,2013-04-10 02:52:00,
2013-04-09 19:02:00,24.0,-1.0,-100.00,West,260,19.0,32.0,33,0.00,,,0.00,385.399994,,2013-04-10 03:02:00,
2013-04-09 19:12:00,24.0,-1.0,-100.00,West,260,19.0,32.0,33,0.00,,,0.00,385.399994,,2013-04-10 03:12:00,
2013-04-09 19:22:00,24.0,-1.0,-100.00,West,260,19.0,32.0,33,0.00,,,0.00,385.399994,,2013-04-10 03:22:00,
2013-04-09 19:53:00,22.0,-1.0,-100.00,West,260,14.0,26.0,35,0.00,,,0.00,245.800003,,2013-04-10 03:53:00,
2013-04-09 20:03:00,22.0,-1.0,-100.00,West,260,14.0,26.0,35,0.00,,,0.00,245.800003,,2013-04-10 04:03:00,
2013-04-09 20:13:00,22.0,-1.0,-100.00,West,260,14.0,26.0,35,0.00,,,0.00,245.800003,,2013-04-10 04:13:00,
2013-04-09 20:53:00,20.0,-2.0,-100.00,West,270,15.0,24.0,36,0.00,,,0.00,64.500000,,2013-04-10 04:53:00,
2013-04-09 21:02:00,20.0,-2.0,-100.00,West,270,15.0,24.0,36,0.00,,,0.00,64.500000,,2013-04-10 05:02:00,
2013-04-09 21:22:00,20.0,-2.0,-100.00,West,270,15.0,24.0,36,0.00,,,0.00,64.500000,,2013-04-10 05:22:00,
2013-04-09 21:53:00,19.0,-3.0,-100.00,West,271,11.0,24.0,38,0.00,,,-99.99,11.500000,,2013-04-10 05:53:00,
2013-04-09 22:02:00,19.0,-3.0,-100.00,West,271,11.0,24.0,38,0.00,,,-99.99,11.500000,,2013-04-10 06:02:00,
2013-04-09 22:12:00,19.0,-3.0,-100.00,West,271,11.0,24.0,38,0.00,,,-99.99,11.500000,,2013-04-10 06:12:00,
2013-04-09 22:22:00,19.0,-3.0,-100.00,West,271,11.0,24.0,38,0.00,,,-99.99,11.500000,,2013-04-10 06:22:00,
2013-04-09 22:52:00,19.0,-2.0,-100.00,West,263,15.0,22.0,38,0.00,,,0.00,0.800000,,2013-04-10 06:52:00,
2013-04-09 23:02:00,19.0,-2.0,-100.00,West,263,15.0,22.0,38,0.00,,,0.00,0.800000,,2013-04-10 07:02:00,
2013-04-09 23:12:00,19.0,-2.0,-100.00,West,263,15.0,22.0,38,0.00,,,0.00,0.800000,,2013-04-10 07:12:00,
2013-04-09 23:22:00,19.0,-2.0,-100.00,West,263,15.0,22.0,38,0.00,,,0.00,0.800000,,2013-04-10 07:22:00,
2013-04-09 23:52:00,18.0,-4.0,-100.00,West,262,19.0,25.0,38,0.00,,,0.00,0.800000,,2013-04-10 07:52:00,